{"data":{"norad_id":54059,"intl_designator":"2022-136J","name":"STARLINK-5173","alt_names":[],"object_type":"PAYLOAD","status":"ACTIVE","operator":null,"country":"US","launch_date":"2022-10-20","launch_site_code":"AFETR","launch_vehicle":null,"mission":null,"orbit_class":"UNKNOWN","rcs_meters":null,"size_class":null,"mass_kg":null,"dimensions":null,"purposes":["comms"],"wikipedia_slug":null,"has_3d_model":false,"image_url":null,"decayed_at":null,"tle_current":{"epoch":"2026-09-20T22:26:23.434080Z","epoch_age_seconds":48917,"freshness":"FRESH","line1":"1 54059U 22136J   26263.93499345  .00000888  00000+0  37418-4 0  9992","line2":"2 54059  53.1594 175.4465 0001234  88.5812 271.5333 15.34386005216486","mean_motion":15.34386005,"eccentricity":0.0001234,"inclination_deg":53.1594,"raan_deg":175.4465,"arg_perigee_deg":88.5812,"mean_anomaly_deg":271.5333,"bstar":3.7418e-5,"rev_number":21648,"period_min":93.848614058494,"perigee_km":461.90067179394,"apogee_km":463.58900143122,"semimajor_km":6840.8818366126,"source":"CELESTRAK","updated_at":"2026-09-21T09:00:33.077157Z"}}}